EW0641 Weather Reports


Display with metric or nautical units.
time (UTC)temp
F
wind
direction
speed
MPH
gust
MPH
rain 1hr
in
rain 24hr
in
rain mn
in
humidity
%
barometer
mb
20260831060054 73 223 0.0 0.0 0.00 0.15 0.00 89 1015.7
20260831054551 73 222 0.0 0.0 0.00 0.15 0.00 89 1015.9
20260831053050 73 223 0.0 0.0 0.00 0.15 0.00 89 1015.9
20260831051549 73 222 0.0 0.0 0.00 0.15 0.00 89 1015.9
20260831050047 73 222 0.0 0.0 0.00 0.15 0.00 89 1016.0
20260831044549 73 222 0.0 0.0 0.00 0.15 0.00 89 1016.1
20260831043044 73 222 0.0 0.0 0.00 0.15 0.00 88 1016.2
20260831041559 73 222 0.0 0.0 0.00 0.15 0.00 88 1016.2
20260831040041 74 222 0.0 0.0 0.00 0.15 0.00 87 1016.1
20260831034539 74 222 0.0 5.0 0.00 0.15 0.15 87 1016.1
20260831033039 74 225 0.0 0.0 0.00 0.15 0.15 86 1016.0
20260831031543 74 226 0.0 7.0 0.00 0.15 0.15 85 1015.9
20260831030037 73 210 0.0 6.0 0.00 0.15 0.15 85 1015.8
20260831024547 73 215 1.0 8.0 0.00 0.15 0.15 85 1015.7
20260831023036 73 214 0.0 166.0 0.00 0.15 0.15 87 1015.8
20260831021534 73 220 0.0 6.0 0.00 0.15 0.15 87 1015.7
20260831020035 73 237 0.0 21.0 0.00 0.15 0.15 87 1015.7
20260831014533 73 228 0.0 20.0 0.00 0.15 0.15 87 1015.7
20260831013035 73 229 1.0 16.0 0.00 0.15 0.15 87 1015.6
20260831011531 73 221 0.0 17.0 0.00 0.15 0.15 88 1015.7
20260831010035 73 221 2.0 17.0 0.00 0.15 0.15 88 1015.5
20260831004529 73 225 2.0 11.0 0.00 0.15 0.15 88 1015.4
20260831003028 73 214 1.0 8.0 0.00 0.15 0.15 88 1015.4
20260831001526 73 194 0.0 0.0 0.00 0.15 0.15 88 1015.5
20260831000027 73 223 0.0 0.0 0.00 0.15 0.15 87 1015.7
20260830234539 74 197 0.0 4.0 0.00 0.15 0.15 86 1015.8
20260830233025 74 223 0.0 5.0 0.00 0.15 0.15 85 1016.3
20260830231524 74 220 0.0 6.0 0.00 0.15 0.15 84 1016.4
20260830230027 74 209 2.0 8.0 0.00 0.15 0.15 83 1016.2
20260830224523 74 233 0.0 5.0 0.00 0.15 0.15 83 1016.5
20260830223023 74 221 0.0 7.0 0.00 0.15 0.15 82 1016.4
20260830221529 74 202 0.0 0.0 0.00 0.15 0.15 81 1016.3
20260830220022 75 211 0.0 1.0 0.00 0.15 0.15 80 1016.6
20260830214521 75 219 0.0 6.0 0.00 0.15 0.15 81 1016.2
20260830213024 75 211 0.0 5.0 0.00 0.15 0.15 82 1015.8
20260830211527 75 208 0.0 8.0 0.00 0.15 0.15 81 1015.8
20260830210019 75 223 0.0 10.0 0.00 0.15 0.15 82 1015.5
20260830204531 75 232 0.0 0.0 0.00 0.15 0.15 83 1015.6
20260830203016 75 234 3.0 8.0 0.00 0.15 0.15 84 1015.9
20260830201515 74 230 0.0 7.0 0.00 0.15 0.15 85 1015.7
20260830200014 74 221 0.0 8.0 0.00 0.15 0.15 85 1015.8
20260830194513 74 215 0.0 9.0 0.00 0.15 0.15 86 1016.0
20260830193013 74 217 0.0 7.0 0.00 0.15 0.15 85 1016.1
20260830191511 74 238 0.0 7.0 0.00 0.15 0.15 84 1016.2
20260830190011 74 237 2.0 16.0 0.00 0.15 0.15 83 1015.9
20260830184517 74 221 8.0 23.0 0.00 0.15 0.15 82 1016.1
20260830183008 74 217 3.0 13.0 0.00 0.15 0.15 83 1016.0
20260830181505 74 232 1.0 6.0 0.00 0.15 0.15 85 1016.7
20260830180004 73 240 1.0 5.0 0.00 0.15 0.15 86 1016.7
20260830174504 72 224 0.0 7.0 0.00 0.15 0.15 87 1016.7
20260830173004 72 215 0.0 8.0 0.00 0.15 0.15 88 1017.0
20260830171503 71 221 0.0 5.0 0.00 0.15 0.15 91 1017.1
20260830170003 71 227 0.0 0.0 0.00 0.15 0.15 92 1017.5
20260830164503 70 227 0.0 0.0 0.00 0.15 0.15 93 1018.0
20260830163000 70 228 0.0 0.0 0.02 0.15 0.15 93 1018.3
20260830161609 70 228 0.0 0.0 0.05 0.15 0.15 93 1018.4
20260830160100 69 242 0.0 0.0 0.06 0.15 0.15 93 1018.6
20260830154604 69 259 0.0 0.0 0.08 0.15 0.15 92 1018.8
20260830153108 69 282 0.0 0.0 0.06 0.13 0.13 92 1018.9
20260830151557 69 287 0.0 0.0 0.04 0.10 0.10 92 1018.9
20260830150059 69 288 0.0 2.0 0.05 0.09 0.09 91 1018.8
20260830144554 69 282 0.0 0.0 0.04 0.07 0.07 91 1018.8
20260830143053 69 282 0.0 0.0 0.06 0.07 0.07 91 1018.4
20260830141550 70 240 0.0 0.0 0.05 0.06 0.06 90 1018.1
20260830140047 71 227 0.0 0.0 0.03 0.04 0.04 90 1018.3
20260830134547 71 226 0.0 0.0 0.01 0.02 0.02 90 1018.5
20260830133046 72 226 0.0 0.0 0.00 0.01 0.01 90 1018.4
20260830131546 72 226 0.0 0.0 0.00 0.01 0.01 90 1018.3
20260830130046 72 226 0.0 0.0 0.00 0.01 0.01 91 1018.4
20260830124544 72 226 0.0 0.0 0.00 0.01 0.01 90 1018.2
20260830123045 72 226 0.0 0.0 0.00 0.01 0.01 90 1018.0
20260830121543 72 226 0.0 0.0 0.00 0.01 0.01 90 1017.8
20260830120046 72 226 0.0 0.0 0.00 0.01 0.01 90 1017.3
20260830114543 71 226 0.0 0.0 0.00 0.01 0.01 90 1016.9
20260830113042 71 219 0.0 2.0 0.01 0.01 0.01 91 1016.7
20260830111541 71 220 0.0 0.0 0.01 0.01 0.01 92 1016.6
20260830110041 71 220 0.0 0.0 0.01 0.01 0.01 92 1016.7
20260830104540 71 220 0.0 0.0 0.01 0.01 0.01 92 1016.8
20260830103039 71 220 0.0 0.0 0.00 0.00 0.00 92 1016.6
20260830101539 71 220 0.0 0.0 0.00 0.00 0.00 92 1017.1
20260830100046 71 220 0.0 0.0 0.00 0.00 0.00 92 1017.2
20260830094535 71 220 0.0 0.0 0.00 0.00 0.00 91 1017.1
20260830093033 71 220 0.0 0.0 0.00 0.00 0.00 91 1017.3
20260830091534 71 220 0.0 0.0 0.00 0.00 0.00 91 1017.5
20260830090032 71 220 0.0 0.0 0.00 0.00 0.00 91 1017.5
20260830084530 71 220 0.0 0.0 0.00 0.00 0.00 91 1017.5
20260830083029 71 220 0.0 0.0 0.00 0.00 0.00 90 1017.8
20260830081528 71 220 0.0 0.0 0.00 0.00 0.00 90 1018.1
20260830080027 72 220 0.0 0.0 0.00 0.00 0.00 90 1017.7
20260830074527 72 220 0.0 0.0 0.00 0.00 0.00 90 1017.8
20260830073027 72 220 0.0 0.0 0.00 0.00 0.00 89 1017.8
20260830071535 72 220 0.0 0.0 0.00 0.00 0.00 89 1017.6
20260830070024 72 220 0.0 0.0 0.00 0.00 0.00 89 1017.5
20260830064523 72 220 0.0 0.0 0.00 0.00 0.00 89 1017.8
20260830063025 72 220 0.0 0.0 0.00 0.00 0.00 88 1017.7
20260830061521 72 220 0.0 0.0 0.00 0.00 0.00 88 1017.9